N36TP KT67-KGGG

Flight info

Callsign N36TP
Flight time 0h 40m
Altitude 13000
Route TTT SOLDO TYR357031
Aircraft B36T/L-BDFGLORY/S

Departure

Time 2026-04-29 00:26
Airport Hicks Air Field (KT67)

Arrival

Time 2026-04-29 01:07
Airport East Texas Regional Airport (KGGG)
Time Latitude Longitude Altitude Speed Heading
2026-04-29 00:22 32.93422 -97.41429 846 ft 0 kts 328°
2026-04-29 00:25 32.93425 -97.41441 846 ft 7 kts 248°
2026-04-29 00:25 32.93469 -97.41488 842 ft 12 kts 298°
2026-04-29 00:25 32.93471 -97.41495 840 ft 0 kts 276°
2026-04-29 00:25 32.93453 -97.41524 845 ft 10 kts 192°
2026-04-29 00:26 32.93271 -97.41396 840 ft 68 kts 148°
2026-04-29 00:26 32.92751 -97.40995 1146 ft 99 kts 143°
2026-04-29 00:26 32.92459 -97.40281 1721 ft 105 kts 91°
2026-04-29 00:26 32.92464 -97.39421 2410 ft 102 kts 88°
2026-04-29 00:27 32.92474 -97.38589 3066 ft 100 kts 98°
2026-04-29 00:27 32.92486 -97.37757 3668 ft 101 kts 93°
2026-04-29 00:27 32.92486 -97.36781 3957 ft 142 kts 94°
2026-04-29 00:27 32.92457 -97.35514 4351 ft 163 kts 93°
2026-04-29 00:28 32.92435 -97.34101 4753 ft 177 kts 92°
2026-04-29 00:28 32.92414 -97.32597 5130 ft 186 kts 92°
2026-04-29 00:28 32.92194 -97.31070 5502 ft 190 kts 109°
2026-04-29 00:28 32.91807 -97.29552 5876 ft 193 kts 107°
2026-04-29 00:29 32.91492 -97.28014 6362 ft 190 kts 104°
2026-04-29 00:29 32.91207 -97.26487 6819 ft 189 kts 104°
2026-04-29 00:29 32.90918 -97.24961 7284 ft 189 kts 104°
2026-04-29 00:29 32.90627 -97.23431 7754 ft 190 kts 105°
2026-04-29 00:30 32.90331 -97.21888 8223 ft 192 kts 105°
2026-04-29 00:30 32.90135 -97.20859 8550 ft 193 kts 105°
2026-04-29 00:30 32.89732 -97.18756 9194 ft 196 kts 105°
2026-04-29 00:30 32.89428 -97.17168 9703 ft 198 kts 105°
2026-04-29 00:31 32.89121 -97.15562 10156 ft 200 kts 105°
2026-04-29 00:31 32.88814 -97.13965 10609 ft 201 kts 105°
2026-04-29 00:31 32.88507 -97.12352 11198 ft 195 kts 105°
2026-04-29 00:31 32.88213 -97.10817 11780 ft 191 kts 105°
2026-04-29 00:32 32.87920 -97.09288 12380 ft 188 kts 106°
2026-04-29 00:32 32.87630 -97.07780 12939 ft 190 kts 105°
2026-04-29 00:32 32.87305 -97.06127 12996 ft 219 kts 106°
2026-04-29 00:32 32.86956 -97.04324 13001 ft 229 kts 103°
2026-04-29 00:33 32.86892 -97.02388 13002 ft 239 kts 89°
2026-04-29 00:33 32.86910 -97.00386 12998 ft 244 kts 90°
2026-04-29 00:33 32.86899 -96.98365 13001 ft 246 kts 91°
2026-04-29 00:33 32.86888 -96.96321 12999 ft 247 kts 90°
2026-04-29 00:34 32.86881 -96.94276 13018 ft 247 kts 90°
2026-04-29 00:34 32.86878 -96.92919 13016 ft 247 kts 90°
2026-04-29 00:34 32.86868 -96.90206 13018 ft 248 kts 90°
2026-04-29 00:34 32.86860 -96.88157 13018 ft 248 kts 90°
2026-04-29 00:35 32.86852 -96.86103 13019 ft 248 kts 90°
2026-04-29 00:35 32.86843 -96.84053 13020 ft 248 kts 91°
2026-04-29 00:35 32.86838 -96.82689 13015 ft 249 kts 91°
2026-04-29 00:35 32.86828 -96.80618 13015 ft 251 kts 91°
2026-04-29 00:36 32.86818 -96.78544 13015 ft 251 kts 91°
2026-04-29 00:36 32.86808 -96.76463 13014 ft 251 kts 91°
2026-04-29 00:36 32.86798 -96.74387 13015 ft 251 kts 91°
2026-04-29 00:36 32.86788 -96.72307 13016 ft 252 kts 91°
2026-04-29 00:37 32.86777 -96.70226 13013 ft 252 kts 91°
2026-04-29 00:37 32.86765 -96.68142 13015 ft 252 kts 91°
2026-04-29 00:37 32.86754 -96.66087 13015 ft 251 kts 91°
2026-04-29 00:37 32.86742 -96.63981 13015 ft 251 kts 91°
2026-04-29 00:38 32.86730 -96.61931 13016 ft 251 kts 91°
2026-04-29 00:38 32.86717 -96.59854 13017 ft 251 kts 91°
2026-04-29 00:38 32.86704 -96.57773 13016 ft 251 kts 91°
2026-04-29 00:38 32.86691 -96.55696 12999 ft 251 kts 91°
2026-04-29 00:39 32.86677 -96.53616 12999 ft 251 kts 91°
2026-04-29 00:39 32.86721 -96.51532 12998 ft 252 kts 85°
2026-04-29 00:39 32.86886 -96.49462 12999 ft 252 kts 84°
2026-04-29 00:39 32.87064 -96.47391 13001 ft 252 kts 83°
2026-04-29 00:40 32.87246 -96.45319 13006 ft 252 kts 84°
2026-04-29 00:40 32.87430 -96.43245 13005 ft 253 kts 83°
2026-04-29 00:40 32.87616 -96.41165 13007 ft 253 kts 83°
2026-04-29 00:40 32.87462 -96.39105 12997 ft 250 kts 109°
2026-04-29 00:41 32.86933 -96.37171 13001 ft 248 kts 113°
2026-04-29 00:41 32.86371 -96.35243 13020 ft 248 kts 113°
2026-04-29 00:41 32.85796 -96.33288 13020 ft 248 kts 113°
2026-04-29 00:41 32.85207 -96.31359 13020 ft 248 kts 116°
2026-04-29 00:42 32.84526 -96.29477 13021 ft 247 kts 118°
2026-04-29 00:42 32.83866 -96.27585 13021 ft 248 kts 116°
2026-04-29 00:42 32.83240 -96.25673 13021 ft 249 kts 115°
2026-04-29 00:42 32.82611 -96.23758 13022 ft 249 kts 116°
2026-04-29 00:43 32.81974 -96.21841 13019 ft 248 kts 116°
2026-04-29 00:43 32.81336 -96.19931 13019 ft 249 kts 116°
2026-04-29 00:43 32.80698 -96.18018 13020 ft 248 kts 116°
2026-04-29 00:43 32.80062 -96.16111 13020 ft 248 kts 116°
2026-04-29 00:44 32.79426 -96.14200 13019 ft 248 kts 116°
2026-04-29 00:44 32.78797 -96.12318 13020 ft 248 kts 116°
2026-04-29 00:44 32.78162 -96.10414 13021 ft 248 kts 116°
2026-04-29 00:44 32.77525 -96.08510 13024 ft 248 kts 116°
2026-04-29 00:45 32.76888 -96.06602 13025 ft 248 kts 116°
2026-04-29 00:45 32.76250 -96.04696 13026 ft 248 kts 116°
2026-04-29 00:45 32.75614 -96.02796 13027 ft 248 kts 116°
2026-04-29 00:45 32.74979 -96.00898 13028 ft 247 kts 116°
2026-04-29 00:46 32.74340 -95.98999 13025 ft 247 kts 118°
2026-04-29 00:46 32.73701 -95.97098 13025 ft 248 kts 117°
2026-04-29 00:46 32.73065 -95.95191 13027 ft 248 kts 117°
2026-04-29 00:46 32.72434 -95.93308 13017 ft 249 kts 117°
2026-04-29 00:47 32.71805 -95.91435 12887 ft 234 kts 117°
2026-04-29 00:47 32.71223 -95.89690 12754 ft 222 kts 118°
2026-04-29 00:47 32.70657 -95.88008 12621 ft 217 kts 118°
2026-04-29 00:47 32.70098 -95.86350 12495 ft 215 kts 118°
2026-04-29 00:48 32.69544 -95.84708 12376 ft 213 kts 118°
2026-04-29 00:48 32.68992 -95.83072 12251 ft 212 kts 118°
2026-04-29 00:48 32.68445 -95.81447 12129 ft 212 kts 118°
2026-04-29 00:48 32.67896 -95.79820 12005 ft 212 kts 118°
2026-04-29 00:49 32.67341 -95.78172 11885 ft 220 kts 118°
2026-04-29 00:49 32.66765 -95.76480 11774 ft 227 kts 118°
2026-04-29 00:49 32.66175 -95.74733 11658 ft 228 kts 117°
2026-04-29 00:49 32.65586 -95.72982 11540 ft 228 kts 117°
2026-04-29 00:50 32.64996 -95.71231 11425 ft 228 kts 117°
2026-04-29 00:50 32.64405 -95.69488 11293 ft 227 kts 118°
2026-04-29 00:50 32.63818 -95.67745 11189 ft 227 kts 117°
2026-04-29 00:50 32.63360 -95.65943 11069 ft 229 kts 108°
2026-04-29 00:51 32.63028 -95.64097 10951 ft 229 kts 106°
2026-04-29 00:51 32.62685 -95.62260 10787 ft 228 kts 108°
2026-04-29 00:51 32.62316 -95.60433 10674 ft 227 kts 108°
2026-04-29 00:51 32.61945 -95.58608 10550 ft 227 kts 108°
2026-04-29 00:52 32.61585 -95.56812 10433 ft 226 kts 108°
2026-04-29 00:52 32.61222 -95.54997 10317 ft 226 kts 108°
2026-04-29 00:52 32.60858 -95.53183 10202 ft 226 kts 108°
2026-04-29 00:52 32.60493 -95.51372 10085 ft 225 kts 108°
2026-04-29 00:53 32.60132 -95.49574 9977 ft 224 kts 108°
2026-04-29 00:53 32.59769 -95.47772 9864 ft 224 kts 108°
2026-04-29 00:53 32.59406 -95.45969 9710 ft 225 kts 108°
2026-04-29 00:53 32.59045 -95.44184 9501 ft 226 kts 108°
2026-04-29 00:54 32.58676 -95.42353 9300 ft 225 kts 108°
2026-04-29 00:54 32.58312 -95.40547 9102 ft 225 kts 107°
2026-04-29 00:54 32.57947 -95.38743 8902 ft 225 kts 107°
2026-04-29 00:54 32.57588 -95.36966 8711 ft 224 kts 107°
2026-04-29 00:55 32.57225 -95.35174 8492 ft 224 kts 107°
2026-04-29 00:55 32.56859 -95.33372 8240 ft 224 kts 107°
2026-04-29 00:55 32.56494 -95.31570 8045 ft 224 kts 107°
2026-04-29 00:55 32.56132 -95.29783 7803 ft 222 kts 107°
2026-04-29 00:56 32.55773 -95.28010 7563 ft 220 kts 106°
2026-04-29 00:56 32.55414 -95.26243 7327 ft 219 kts 106°
2026-04-29 00:56 32.55059 -95.24495 7092 ft 218 kts 106°
2026-04-29 00:56 32.54702 -95.22743 6762 ft 220 kts 106°
2026-04-29 00:57 32.54349 -95.21012 6331 ft 204 kts 106°
2026-04-29 00:57 32.54021 -95.19385 5839 ft 209 kts 107°
2026-04-29 00:57 32.53676 -95.17689 5353 ft 212 kts 108°
2026-04-29 00:57 32.53328 -95.15994 4879 ft 205 kts 109°
2026-04-29 00:58 32.53028 -95.14497 4388 ft 181 kts 110°
2026-04-29 00:58 32.52719 -95.13005 3909 ft 194 kts 109°
2026-04-29 00:58 32.52397 -95.11443 3436 ft 195 kts 109°
2026-04-29 00:58 32.52076 -95.09876 3032 ft 193 kts 109°
2026-04-29 00:59 32.51775 -95.08382 3013 ft 189 kts 109°
2026-04-29 00:59 32.51462 -95.06819 3004 ft 197 kts 110°
2026-04-29 00:59 32.51114 -95.05246 3013 ft 195 kts 110°
2026-04-29 00:59 32.50811 -95.03691 3014 ft 191 kts 109°
2026-04-29 01:00 32.50499 -95.02172 3010 ft 189 kts 110°
2026-04-29 01:00 32.50183 -95.00667 3011 ft 188 kts 110°
2026-04-29 01:00 32.49876 -94.99167 3031 ft 186 kts 110°
2026-04-29 01:00 32.49564 -94.97652 2911 ft 191 kts 110°
2026-04-29 01:01 32.49247 -94.96113 2811 ft 192 kts 109°
2026-04-29 01:01 32.48936 -94.94590 2812 ft 186 kts 108°
2026-04-29 01:01 32.48639 -94.93146 2806 ft 176 kts 109°
2026-04-29 01:01 32.48351 -94.91746 2806 ft 174 kts 109°
2026-04-29 01:02 32.48064 -94.90360 2804 ft 173 kts 109°
2026-04-29 01:02 32.47780 -94.88986 2804 ft 171 kts 109°
2026-04-29 01:02 32.47501 -94.87638 2800 ft 171 kts 109°
2026-04-29 01:02 32.47216 -94.86261 2802 ft 173 kts 109°
2026-04-29 01:03 32.46928 -94.84878 2804 ft 173 kts 109°
2026-04-29 01:03 32.46645 -94.83500 2804 ft 171 kts 108°
2026-04-29 01:03 32.46362 -94.82133 2810 ft 171 kts 109°
2026-04-29 01:03 32.46034 -94.80779 2815 ft 172 kts 111°
2026-04-29 01:04 32.45808 -94.79385 2810 ft 171 kts 109°
2026-04-29 01:04 32.45217 -94.78240 2809 ft 161 kts 145°
2026-04-29 01:04 32.44291 -94.77545 2767 ft 163 kts 161°
2026-04-29 01:04 32.43246 -94.76865 2426 ft 175 kts 155°
2026-04-29 01:05 32.42438 -94.76035 2056 ft 139 kts 137°
2026-04-29 01:05 32.41905 -94.75164 1737 ft 125 kts 133°
2026-04-29 01:05 32.41340 -94.74418 1383 ft 115 kts 137°
2026-04-29 01:05 32.40770 -94.73786 1185 ft 113 kts 138°
2026-04-29 01:06 32.40186 -94.73148 955 ft 116 kts 136°
2026-04-29 01:06 32.39661 -94.72531 668 ft 94 kts 134°
2026-04-29 01:06 32.39220 -94.71967 433 ft 93 kts 134°
2026-04-29 01:06 32.38804 -94.71457 364 ft 74 kts 135°
2026-04-29 01:07 32.38521 -94.71108 363 ft 27 kts 131°
2026-04-29 01:07 32.38449 -94.71129 360 ft 18 kts 222°
2026-04-29 01:07 32.38416 -94.71219 360 ft 16 kts 303°
2026-04-29 01:07 32.38502 -94.71351 360 ft 24 kts 305°
2026-04-29 01:08 32.38521 -94.71496 362 ft 18 kts 226°
2026-04-29 01:08 32.38395 -94.71639 361 ft 28 kts 223°
2026-04-29 01:08 32.38278 -94.71771 361 ft 21 kts 224°
2026-04-29 01:08 32.38247 -94.71881 361 ft 3 kts 180°
2026-04-29 01:09 32.38244 -94.71880 365 ft 0 kts 176°